Starlink 35592

operational
NORAD ID: 66136 Int'l Des: 2025-237 Owner: SPXS Country: US Constellation: starlink
LEOCIRCULAR

About Starlink 35592

Description loading...

Live Position

Loading 3D Globe...

Upcoming Passes

Altitude History

Altitude vs Time

uPlot chart will show altitude changes over time

Two-Line Element Set

1 66136U 25237Y 25310.91668981 -.00283446 00000-0 -19979-2 0 9996
2 66136 53.1601 257.5442 0001263 100.5267 334.7863 15.74175172 3728
Epoch: Nov 6, 2025 • Age: 5 hours

Current Status

Altitude 349.5 km
Velocity 7.70 km/s
Sub-Earth Point 37.06°N, 46.39°W
Launch Date Oct 22, 2025
Age 15 days
Type internet

Technical Details

Classification Payload
Mass 575.00 kg
Dry Mass 530.00 kg
Total Mass 575.00 kg
Length 0.30 m
Diameter 4.10 m
Span 29.00 m
Shape Box + pan
Manufacturer SPXS
Bus Type Starlink V2MO
Phase Status In Orbit
Owner/State SPXS/US

Large Constellations

Loading constellations...